Location: The Jewett Observatory
(46.7288°N, 117.1525°W)
Time: 20:36:19
(UTC-07:00)

Cosmos 1633 - Visible Passes

Search period start: 31 August 2016 00:00
Search period end: 10 September 2016 00:00
Orbit: 473 x 495 km, 82.5° (Epoch: 31 August)

Date Brightness Start Highest point End Pass type
(mag) Time Alt. Az. Time Alt. Az. Time Alt. Az.
31 Aug 5.8 20:04:51 10° WSW 20:07:36 20° WNW 20:10:23 10° NNW visible
02 Sep 4.1 05:27:01 10° N 05:30:26 40° ENE 05:33:51 10° SSE visible
03 Sep 5.1 05:02:19 10° NNE 05:05:24 26° ENE 05:08:28 10° SE visible
04 Sep 5.8 04:37:51 10° NNE 04:40:19 17° ENE 04:42:47 10° ESE visible
04 Sep 6.6 20:02:15 10° W 20:03:06 11° WNW 20:03:57 10° NW visible
05 Sep 6.1 04:13:53 10° NE 04:15:11 12° ENE 04:16:28 10° E visible
06 Sep 2.5 05:22:02 10° N 05:25:40 90° E 05:29:16 10° S visible
07 Sep 3.4 04:57:08 10° N 05:00:41 54° ENE 05:04:13 10° SSE visible
08 Sep 4.4 04:32:20 10° N 04:35:39 33° ENE 04:38:58 10° SE visible
09 Sep 5.1 04:07:43 10° NNE 04:10:35 22° ENE 04:13:27 10° SE visible
09 Sep 3.6 05:42:34 10° NNW 05:45:36 26° W 05:48:38 10° SSW visible
